THY35X LTFM-EDDF

Flight info

Callsign THY35X
Flight time 2h 23m
Altitude 40000
Route TUDBU Q26 ETUBA DCT NAVOD DCT MOPUG DCT ARSIN DCT SUBEN DCT AKINI T161 DEBHI DEBHI1B
Aircraft A359/H-SDE2E3GHIJ3J4J5LM1ORWXY/LB1D1

Departure

Time 2026-04-18 06:40
Airport İstanbul Airport (LTFM)

Arrival

Time 2026-04-18 09:04
Airport Frankfurt Main Airport (EDDF)
Time Latitude Longitude Altitude Speed Heading
2026-04-18 05:49 41.26455 28.73544 338 ft 0 kts 71°
2026-04-18 06:28 41.26453 28.73537 339 ft 2 kts 73°
2026-04-18 06:28 41.26450 28.73517 339 ft 2 kts 85°
2026-04-18 06:28 41.26450 28.73498 339 ft 2 kts 95°
2026-04-18 06:29 41.26452 28.73478 339 ft 2 kts 104°
2026-04-18 06:29 41.26456 28.73460 339 ft 2 kts 113°
2026-04-18 06:29 41.26463 28.73442 339 ft 2 kts 123°
2026-04-18 06:29 41.26471 28.73426 339 ft 2 kts 132°
2026-04-18 06:30 41.26482 28.73412 339 ft 2 kts 142°
2026-04-18 06:30 41.26495 28.73401 339 ft 2 kts 151°
2026-04-18 06:30 41.26508 28.73392 339 ft 1 kts 160°
2026-04-18 06:30 41.26511 28.73391 339 ft 0 kts 161°
2026-04-18 06:37 41.26510 28.73391 339 ft 0 kts 161°
2026-04-18 06:37 41.26489 28.73401 339 ft 9 kts 161°
2026-04-18 06:37 41.26409 28.73437 339 ft 15 kts 161°
2026-04-18 06:38 41.26292 28.73489 339 ft 19 kts 166°
2026-04-18 06:38 41.26205 28.73393 339 ft 18 kts 275°
2026-04-18 06:38 41.26215 28.73220 339 ft 18 kts 269°
2026-04-18 06:38 41.26214 28.73096 339 ft 12 kts 269°
2026-04-18 06:39 41.26212 28.72972 339 ft 14 kts 268°
2026-04-18 06:39 41.26205 28.72837 339 ft 14 kts 267°
2026-04-18 06:39 41.26257 28.72772 339 ft 11 kts 352°
2026-04-18 06:39 41.26401 28.72769 339 ft 47 kts 360°
2026-04-18 06:40 41.26990 28.72761 339 ft 119 kts 360°
2026-04-18 06:40 41.27998 28.72749 419 ft 166 kts 359°
2026-04-18 06:40 41.29139 28.72736 1154 ft 163 kts 359°
2026-04-18 06:40 41.30234 28.72710 1966 ft 156 kts 359°
2026-04-18 06:41 41.31278 28.72677 2512 ft 157 kts 359°
2026-04-18 06:41 41.32412 28.72628 2903 ft 168 kts 357°
2026-04-18 06:41 41.33620 28.72574 3314 ft 181 kts 357°
2026-04-18 06:41 41.34867 28.72062 3674 ft 200 kts 321°
2026-04-18 06:42 41.35870 28.70715 4173 ft 214 kts 311°
2026-04-18 06:42 41.36884 28.69170 4691 ft 231 kts 311°
2026-04-18 06:42 41.37960 28.67514 5222 ft 247 kts 311°
2026-04-18 06:42 41.39118 28.65744 5768 ft 264 kts 311°
2026-04-18 06:43 41.40352 28.63867 6479 ft 274 kts 311°
2026-04-18 06:43 41.41611 28.61962 7352 ft 278 kts 311°
2026-04-18 06:43 41.42881 28.60041 8239 ft 281 kts 311°
2026-04-18 06:43 41.44163 28.58104 9114 ft 284 kts 311°
2026-04-18 06:44 41.45470 28.56129 9987 ft 288 kts 311°
2026-04-18 06:44 41.46812 28.54102 10725 ft 297 kts 311°
2026-04-18 06:44 41.48201 28.52002 11223 ft 313 kts 311°
2026-04-18 06:44 41.49663 28.49790 11816 ft 325 kts 311°
2026-04-18 06:45 41.51163 28.47520 12605 ft 330 kts 311°
2026-04-18 06:45 41.52689 28.45209 13426 ft 334 kts 311°
2026-04-18 06:45 41.54227 28.42876 14217 ft 338 kts 311°
2026-04-18 06:45 41.55772 28.40531 14975 ft 342 kts 311°
2026-04-18 06:46 41.57352 28.38132 15720 ft 346 kts 311°
2026-04-18 06:46 41.58919 28.35750 16439 ft 349 kts 311°
2026-04-18 06:46 41.60537 28.33285 17160 ft 353 kts 311°
2026-04-18 06:46 41.62148 28.30818 17859 ft 357 kts 311°
2026-04-18 06:47 41.63779 28.28322 18545 ft 361 kts 311°
2026-04-18 06:47 41.65432 28.25793 19217 ft 364 kts 311°
2026-04-18 06:47 41.67100 28.23243 19873 ft 368 kts 311°
2026-04-18 06:47 41.68796 28.20650 20522 ft 372 kts 311°
2026-04-18 06:48 41.70491 28.18057 21153 ft 375 kts 311°
2026-04-18 06:48 41.72210 28.15426 21774 ft 379 kts 311°
2026-04-18 06:48 41.73938 28.12780 22380 ft 382 kts 311°
2026-04-18 06:48 41.75705 28.10071 22981 ft 386 kts 311°
2026-04-18 06:49 41.77450 28.07393 23557 ft 389 kts 311°
2026-04-18 06:49 41.79248 28.04631 24127 ft 393 kts 311°
2026-04-18 06:49 41.81043 28.01872 24674 ft 396 kts 311°
2026-04-18 06:49 41.82851 27.99089 25204 ft 399 kts 311°
2026-04-18 06:50 41.84674 27.96280 25717 ft 403 kts 311°
2026-04-18 06:50 41.86528 27.93422 26219 ft 406 kts 311°
2026-04-18 06:50 41.88374 27.90572 26698 ft 409 kts 311°
2026-04-18 06:50 41.90232 27.87701 27161 ft 412 kts 311°
2026-04-18 06:51 41.92104 27.84804 27610 ft 415 kts 311°
2026-04-18 06:51 41.93999 27.81870 28049 ft 418 kts 311°
2026-04-18 06:51 41.95914 27.78910 28476 ft 420 kts 311°
2026-04-18 06:51 41.97899 27.76049 28887 ft 423 kts 314°
2026-04-18 06:52 41.99965 27.73212 29290 ft 426 kts 315°
2026-04-18 06:52 42.02043 27.70383 29677 ft 428 kts 315°
2026-04-18 06:52 42.04136 27.67532 30052 ft 431 kts 315°
2026-04-18 06:52 42.06234 27.64668 30416 ft 433 kts 315°
2026-04-18 06:53 42.08334 27.61793 30771 ft 436 kts 315°
2026-04-18 06:53 42.10451 27.58892 31115 ft 438 kts 315°
2026-04-18 06:53 42.12589 27.55972 31450 ft 441 kts 315°
2026-04-18 06:53 42.14761 27.53007 31780 ft 443 kts 315°
2026-04-18 06:54 42.16895 27.50085 32096 ft 445 kts 315°
2026-04-18 06:54 42.19091 27.47068 32411 ft 447 kts 315°
2026-04-18 06:54 42.21248 27.44097 32712 ft 449 kts 315°
2026-04-18 06:54 42.23439 27.41075 33008 ft 452 kts 315°
2026-04-18 06:55 42.25624 27.38054 33295 ft 454 kts 315°
2026-04-18 06:55 42.27815 27.35023 33575 ft 456 kts 315°
2026-04-18 06:55 42.30034 27.31939 33848 ft 458 kts 314°
2026-04-18 06:55 42.32250 27.28850 34113 ft 460 kts 314°
2026-04-18 06:56 42.34475 27.25747 34375 ft 461 kts 314°
2026-04-18 06:56 42.36688 27.22664 34703 ft 461 kts 314°
2026-04-18 06:56 42.38916 27.19557 35069 ft 460 kts 314°
2026-04-18 06:56 42.41134 27.16465 35423 ft 459 kts 314°
2026-04-18 06:57 42.43349 27.13373 35756 ft 458 kts 314°
2026-04-18 06:57 42.47767 27.07199 36360 ft 457 kts 314°
2026-04-18 06:57 42.49987 27.04091 36598 ft 458 kts 314°
2026-04-18 06:58 42.52174 27.01028 36801 ft 459 kts 314°
2026-04-18 06:58 42.54409 26.97893 36999 ft 461 kts 314°
2026-04-18 06:58 42.56621 26.94786 37194 ft 462 kts 314°
2026-04-18 06:58 42.58848 26.91656 37388 ft 463 kts 314°
2026-04-18 06:59 42.61082 26.88511 37576 ft 464 kts 314°
2026-04-18 06:59 42.63322 26.85355 37758 ft 465 kts 314°
2026-04-18 06:59 42.65563 26.82193 37933 ft 466 kts 314°
2026-04-18 06:59 42.67790 26.79048 37985 ft 468 kts 314°
2026-04-18 07:00 42.72295 26.72670 37996 ft 469 kts 314°
2026-04-18 07:00 42.76832 26.66233 37999 ft 479 kts 314°
2026-04-18 07:01 42.81257 26.59421 37998 ft 483 kts 309°
2026-04-18 07:01 42.85152 26.52003 37999 ft 483 kts 303°
2026-04-18 07:02 42.88812 26.44308 37999 ft 483 kts 303°
2026-04-18 07:02 42.92441 26.36632 37999 ft 483 kts 303°
2026-04-18 07:03 42.96066 26.28951 37999 ft 483 kts 302°
2026-04-18 07:03 42.99707 26.21220 38000 ft 483 kts 302°
2026-04-18 07:04 43.03344 26.13498 38000 ft 483 kts 302°
2026-04-18 07:04 43.06967 26.05793 37999 ft 483 kts 303°
2026-04-18 07:05 43.10585 25.98084 37999 ft 483 kts 303°
2026-04-18 07:05 43.14232 25.90356 37999 ft 483 kts 303°
2026-04-18 07:06 43.17834 25.82684 37999 ft 483 kts 303°
2026-04-18 07:06 43.21460 25.74909 37999 ft 483 kts 303°
2026-04-18 07:07 43.25053 25.67177 37999 ft 483 kts 302°
2026-04-18 07:07 43.28645 25.59421 37999 ft 483 kts 302°
2026-04-18 07:08 43.32241 25.51635 37999 ft 483 kts 302°
2026-04-18 07:08 43.35830 25.43844 37999 ft 483 kts 302°
2026-04-18 07:09 43.39399 25.36077 37999 ft 483 kts 302°
2026-04-18 07:09 43.42979 25.28240 37999 ft 483 kts 302°
2026-04-18 07:10 43.46529 25.20446 37999 ft 483 kts 302°
2026-04-18 07:10 43.50102 25.12599 37999 ft 483 kts 302°
2026-04-18 07:11 43.53650 25.04790 37999 ft 483 kts 302°
2026-04-18 07:11 43.57233 24.96884 38187 ft 485 kts 302°
2026-04-18 07:12 43.58992 24.92995 38422 ft 484 kts 302°
2026-04-18 07:12 43.60761 24.89078 38646 ft 483 kts 302°
2026-04-18 07:12 43.62539 24.85135 38842 ft 483 kts 302°
2026-04-18 07:12 43.64297 24.81230 39018 ft 483 kts 302°
2026-04-18 07:13 43.66063 24.77302 39185 ft 483 kts 302°
2026-04-18 07:13 43.67837 24.73350 39349 ft 483 kts 302°
2026-04-18 07:13 43.69605 24.69405 39509 ft 483 kts 302°
2026-04-18 07:13 43.71348 24.65513 39663 ft 483 kts 302°
2026-04-18 07:14 43.73128 24.61585 39811 ft 483 kts 303°
2026-04-18 07:14 43.75029 24.57763 39954 ft 483 kts 306°
2026-04-18 07:14 43.79250 24.50545 39993 ft 483 kts 312°
2026-04-18 07:15 43.83791 24.43713 39998 ft 483 kts 313°
2026-04-18 07:15 43.88326 24.36940 39998 ft 483 kts 313°
2026-04-18 07:16 43.92885 24.30076 39999 ft 483 kts 312°
2026-04-18 07:16 43.97383 24.23263 39999 ft 483 kts 312°
2026-04-18 07:17 44.01928 24.16372 39999 ft 483 kts 312°
2026-04-18 07:17 44.06449 24.09508 39999 ft 483 kts 312°
2026-04-18 07:18 44.10950 24.02663 39999 ft 483 kts 313°
2026-04-18 07:18 44.15498 23.95773 39999 ft 483 kts 313°
2026-04-18 07:19 44.20005 23.88914 39999 ft 483 kts 312°
2026-04-18 07:19 44.24544 23.81970 39999 ft 483 kts 312°
2026-04-18 07:20 44.29040 23.75065 39999 ft 483 kts 312°
2026-04-18 07:20 44.33538 23.68140 39999 ft 483 kts 312°
2026-04-18 07:21 44.38017 23.61226 39999 ft 483 kts 312°
2026-04-18 07:21 44.42518 23.54261 39999 ft 483 kts 312°
2026-04-18 07:22 44.47004 23.47300 39999 ft 483 kts 312°
2026-04-18 07:22 44.51515 23.40284 39999 ft 483 kts 312°
2026-04-18 07:23 44.55996 23.33295 39999 ft 483 kts 311°
2026-04-18 07:23 44.60452 23.26299 39999 ft 483 kts 311°
2026-04-18 07:24 44.64908 23.19297 39999 ft 483 kts 311°
2026-04-18 07:24 44.69376 23.12270 39999 ft 483 kts 311°
2026-04-18 07:25 44.73822 23.05267 39999 ft 483 kts 311°
2026-04-18 07:25 44.78310 22.98180 39999 ft 483 kts 311°
2026-04-18 07:26 44.82760 22.91137 39999 ft 483 kts 311°
2026-04-18 07:26 44.87194 22.84101 39999 ft 483 kts 311°
2026-04-18 07:27 44.91623 22.77055 39999 ft 483 kts 311°
2026-04-18 07:27 44.96069 22.69964 39999 ft 483 kts 311°
2026-04-18 07:28 45.00499 22.62881 39999 ft 483 kts 311°
2026-04-18 07:28 45.04949 22.55749 39999 ft 483 kts 311°
2026-04-18 07:29 45.09380 22.48627 39998 ft 483 kts 311°
2026-04-18 07:29 45.13806 22.41530 39999 ft 483 kts 312°
2026-04-18 07:30 45.18224 22.34434 40000 ft 483 kts 311°
2026-04-18 07:30 45.22643 22.27266 39999 ft 483 kts 311°
2026-04-18 07:31 45.27051 22.20093 39999 ft 483 kts 311°
2026-04-18 07:31 45.31446 22.12933 39999 ft 483 kts 311°
2026-04-18 07:32 45.35834 22.05768 39999 ft 483 kts 311°
2026-04-18 07:32 45.40258 21.98529 39999 ft 483 kts 311°
2026-04-18 07:33 45.44648 21.91329 39999 ft 483 kts 311°
2026-04-18 07:33 45.49011 21.84152 39999 ft 483 kts 311°
2026-04-18 07:34 45.53397 21.76920 39999 ft 483 kts 311°
2026-04-18 07:34 45.57788 21.69660 39999 ft 483 kts 311°
2026-04-18 07:35 45.62146 21.62436 39999 ft 483 kts 311°
2026-04-18 07:35 45.66516 21.55173 39999 ft 483 kts 311°
2026-04-18 07:36 45.70891 21.47882 39999 ft 483 kts 311°
2026-04-18 07:36 45.75235 21.40625 39999 ft 483 kts 311°
2026-04-18 07:37 45.79606 21.33300 39999 ft 483 kts 310°
2026-04-18 07:37 45.83943 21.25985 39999 ft 483 kts 310°
2026-04-18 07:38 45.88289 21.18650 39999 ft 483 kts 310°
2026-04-18 07:38 45.92616 21.11337 39999 ft 483 kts 310°
2026-04-18 07:39 45.96938 21.04019 39999 ft 483 kts 310°
2026-04-18 07:39 46.01286 20.96636 39999 ft 483 kts 310°
2026-04-18 07:40 46.05605 20.89281 39999 ft 483 kts 310°
2026-04-18 07:40 46.09926 20.81901 39999 ft 483 kts 310°
2026-04-18 07:41 46.14212 20.74455 39999 ft 483 kts 308°
2026-04-18 07:41 46.18002 20.66549 40000 ft 483 kts 301°
2026-04-18 07:42 46.21310 20.58126 40000 ft 483 kts 299°
2026-04-18 07:42 46.24529 20.49595 40000 ft 483 kts 299°
2026-04-18 07:43 46.27734 20.41089 40000 ft 483 kts 299°
2026-04-18 07:43 46.30924 20.32616 39999 ft 483 kts 298°
2026-04-18 07:44 46.34114 20.24095 39999 ft 483 kts 298°
2026-04-18 07:44 46.37316 20.15529 39999 ft 483 kts 298°
2026-04-18 07:45 46.40506 20.06983 39999 ft 483 kts 298°
2026-04-18 07:45 46.43691 19.98429 39999 ft 483 kts 298°
2026-04-18 07:46 46.46867 19.89874 39999 ft 483 kts 298°
2026-04-18 07:46 46.50034 19.81315 39999 ft 483 kts 298°
2026-04-18 07:47 46.53200 19.72732 39999 ft 483 kts 298°
2026-04-18 07:47 46.56343 19.64187 39999 ft 483 kts 298°
2026-04-18 07:48 46.59512 19.55540 39999 ft 483 kts 298°
2026-04-18 07:48 46.62642 19.46975 39999 ft 483 kts 298°
2026-04-18 07:49 46.65794 19.38318 39999 ft 483 kts 298°
2026-04-18 07:49 46.68914 19.29711 39999 ft 483 kts 297°
2026-04-18 07:50 46.72034 19.21060 39999 ft 483 kts 297°
2026-04-18 07:50 46.75142 19.12430 39999 ft 483 kts 297°
2026-04-18 07:51 46.78257 19.03759 39999 ft 483 kts 297°
2026-04-18 07:51 46.81375 18.95057 39999 ft 483 kts 297°
2026-04-18 07:52 46.84460 18.86417 39999 ft 483 kts 297°
2026-04-18 07:52 46.87554 18.77728 39999 ft 483 kts 297°
2026-04-18 07:53 46.90653 18.68994 39999 ft 483 kts 297°
2026-04-18 07:53 46.93728 18.60299 39999 ft 483 kts 297°
2026-04-18 07:54 46.96796 18.51593 39999 ft 483 kts 297°
2026-04-18 07:54 46.99875 18.42831 39998 ft 483 kts 297°
2026-04-18 07:55 47.02937 18.34085 39998 ft 483 kts 297°
2026-04-18 07:55 47.05983 18.25328 39999 ft 483 kts 297°
2026-04-18 07:56 47.09011 18.16603 40000 ft 483 kts 297°
2026-04-18 07:56 47.12059 18.07847 39999 ft 483 kts 297°
2026-04-18 07:57 47.15120 17.99064 39999 ft 483 kts 297°
2026-04-18 07:57 47.18173 17.90233 39999 ft 483 kts 297°
2026-04-18 07:58 47.22708 17.77019 39999 ft 483 kts 297°
2026-04-18 07:59 47.25715 17.68212 39999 ft 483 kts 297°
2026-04-18 07:59 47.28725 17.59364 39999 ft 483 kts 297°
2026-04-18 08:00 47.31704 17.50579 39999 ft 483 kts 297°
2026-04-18 08:00 47.34710 17.41684 39999 ft 483 kts 297°
2026-04-18 08:01 47.37697 17.32809 39999 ft 483 kts 296°
2026-04-18 08:01 47.40648 17.23986 39999 ft 483 kts 296°
2026-04-18 08:02 47.43621 17.15075 39999 ft 483 kts 296°
2026-04-18 08:02 47.46581 17.06188 39999 ft 483 kts 296°
2026-04-18 08:03 47.49523 16.97321 39999 ft 483 kts 296°
2026-04-18 08:03 47.52484 16.88359 39999 ft 483 kts 296°
2026-04-18 08:04 47.55421 16.79443 39999 ft 483 kts 296°
2026-04-18 08:04 47.58141 16.70406 39999 ft 483 kts 292°
2026-04-18 08:05 47.60667 16.61168 39999 ft 483 kts 292°
2026-04-18 08:05 47.63168 16.51930 39999 ft 483 kts 292°
2026-04-18 08:06 47.65644 16.42758 39999 ft 483 kts 292°
2026-04-18 08:06 47.68128 16.33530 39999 ft 483 kts 291°
2026-04-18 08:07 47.70605 16.24268 39999 ft 483 kts 291°
2026-04-18 08:07 47.73082 16.14981 39999 ft 483 kts 291°
2026-04-18 08:08 47.75548 16.05708 39999 ft 483 kts 291°
2026-04-18 08:08 47.78004 15.96443 39999 ft 483 kts 291°
2026-04-18 08:09 47.80461 15.87141 39999 ft 483 kts 291°
2026-04-18 08:09 47.82905 15.77852 39999 ft 483 kts 291°
2026-04-18 08:10 47.85327 15.68605 39999 ft 483 kts 291°
2026-04-18 08:10 47.87761 15.59281 39999 ft 483 kts 291°
2026-04-18 08:11 47.90192 15.49927 39999 ft 483 kts 291°
2026-04-18 08:11 47.92612 15.40580 39998 ft 483 kts 291°
2026-04-18 08:12 47.95008 15.31279 39999 ft 483 kts 290°
2026-04-18 08:12 47.97410 15.21892 39999 ft 483 kts 290°
2026-04-18 08:13 47.99799 15.12531 39999 ft 483 kts 291°
2026-04-18 08:13 48.02169 15.03219 39999 ft 483 kts 291°
2026-04-18 08:14 48.04554 14.93810 39999 ft 483 kts 291°
2026-04-18 08:14 48.06916 14.84460 39999 ft 483 kts 291°
2026-04-18 08:15 48.09279 14.75061 39999 ft 483 kts 291°
2026-04-18 08:15 48.11641 14.65695 39999 ft 483 kts 291°
2026-04-18 08:16 48.14013 14.56294 40000 ft 484 kts 291°
2026-04-18 08:16 48.16362 14.46882 40000 ft 484 kts 291°
2026-04-18 08:17 48.18697 14.37453 40000 ft 484 kts 290°
2026-04-18 08:17 48.21017 14.28015 39999 ft 484 kts 290°
2026-04-18 08:18 48.23336 14.18531 39999 ft 484 kts 290°
2026-04-18 08:18 48.25637 14.09095 39999 ft 484 kts 290°
2026-04-18 08:19 48.27928 13.99667 39999 ft 484 kts 290°
2026-04-18 08:19 48.30228 13.90165 39999 ft 484 kts 290°
2026-04-18 08:20 48.32502 13.80726 39999 ft 484 kts 290°
2026-04-18 08:20 48.34782 13.71218 39999 ft 484 kts 290°
2026-04-18 08:21 48.37050 13.61717 39999 ft 484 kts 290°
2026-04-18 08:21 48.39312 13.52188 39999 ft 484 kts 290°
2026-04-18 08:22 48.41555 13.42687 39999 ft 484 kts 290°
2026-04-18 08:22 48.43816 13.33200 39999 ft 484 kts 291°
2026-04-18 08:23 48.46283 13.23825 39999 ft 484 kts 291°
2026-04-18 08:23 48.48776 13.14433 39999 ft 484 kts 291°
2026-04-18 08:24 48.51264 13.04983 39999 ft 484 kts 291°
2026-04-18 08:24 48.53724 12.95580 39999 ft 484 kts 291°
2026-04-18 08:25 48.56181 12.86147 39999 ft 484 kts 291°
2026-04-18 08:25 48.58620 12.76739 39999 ft 484 kts 291°
2026-04-18 08:26 48.61057 12.67300 39999 ft 484 kts 291°
2026-04-18 08:26 48.63493 12.57820 39999 ft 484 kts 291°
2026-04-18 08:27 48.65907 12.48381 39999 ft 484 kts 291°
2026-04-18 08:27 48.68328 12.38873 39999 ft 484 kts 291°
2026-04-18 08:28 48.70734 12.29357 39999 ft 484 kts 290°
2026-04-18 08:28 48.73117 12.19850 39999 ft 484 kts 289°
2026-04-18 08:29 48.75063 12.10176 39998 ft 484 kts 283°
2026-04-18 08:29 48.76358 12.00161 39999 ft 484 kts 279°
2026-04-18 08:30 48.77415 11.90159 39999 ft 484 kts 279°
2026-04-18 08:30 48.78472 11.80112 39682 ft 481 kts 279°
2026-04-18 08:30 48.79004 11.75070 38987 ft 483 kts 279°
2026-04-18 08:31 48.79533 11.70050 37971 ft 491 kts 279°
2026-04-18 08:31 48.80068 11.64962 36905 ft 498 kts 279°
2026-04-18 08:31 48.80613 11.59773 35972 ft 501 kts 279°
2026-04-18 08:31 48.81162 11.54523 35114 ft 502 kts 279°
2026-04-18 08:32 48.81701 11.49310 34246 ft 503 kts 279°
2026-04-18 08:32 48.82235 11.44102 33342 ft 504 kts 279°
2026-04-18 08:32 48.82769 11.38876 32761 ft 498 kts 279°
2026-04-18 08:32 48.83377 11.33808 32530 ft 485 kts 283°
2026-04-18 08:33 48.84321 11.28934 32305 ft 473 kts 290°
2026-04-18 08:33 48.85572 11.24436 32092 ft 461 kts 296°
2026-04-18 08:33 48.87112 11.20259 31885 ft 450 kts 302°
2026-04-18 08:33 48.88905 11.16436 31595 ft 442 kts 309°
2026-04-18 08:34 48.90944 11.12950 31165 ft 438 kts 315°
2026-04-18 08:34 48.93131 11.09806 30696 ft 434 kts 317°
2026-04-18 08:34 48.95354 11.06779 30222 ft 431 kts 318°
2026-04-18 08:34 48.97580 11.03724 29744 ft 428 kts 317°
2026-04-18 08:35 48.99741 11.00654 29272 ft 425 kts 317°
2026-04-18 08:35 49.01882 10.97572 28975 ft 421 kts 316°
2026-04-18 08:35 49.04011 10.94495 28715 ft 421 kts 316°
2026-04-18 08:35 49.06110 10.91456 28384 ft 419 kts 316°
2026-04-18 08:36 49.08204 10.88422 28023 ft 417 kts 316°
2026-04-18 08:36 49.10298 10.85386 27645 ft 414 kts 316°
2026-04-18 08:36 49.12367 10.82397 27267 ft 411 kts 317°
2026-04-18 08:36 49.14451 10.79388 26882 ft 408 kts 317°
2026-04-18 08:37 49.16498 10.76421 26502 ft 406 kts 316°
2026-04-18 08:37 49.18527 10.73472 26122 ft 403 kts 316°
2026-04-18 08:37 49.20530 10.70552 25744 ft 400 kts 316°
2026-04-18 08:37 49.22520 10.67644 25369 ft 397 kts 316°
2026-04-18 08:38 49.24535 10.64696 24988 ft 395 kts 316°
2026-04-18 08:38 49.26490 10.61828 24617 ft 392 kts 316°
2026-04-18 08:38 49.28450 10.58950 24244 ft 389 kts 316°
2026-04-18 08:38 49.30376 10.56120 23875 ft 387 kts 316°
2026-04-18 08:39 49.32324 10.53257 23504 ft 384 kts 316°
2026-04-18 08:39 49.34237 10.50422 23137 ft 382 kts 315°
2026-04-18 08:39 49.36038 10.47486 22772 ft 379 kts 311°
2026-04-18 08:39 49.37698 10.44390 22412 ft 376 kts 308°
2026-04-18 08:40 49.39228 10.41178 22050 ft 374 kts 306°
2026-04-18 08:40 49.40734 10.37900 21685 ft 371 kts 306°
2026-04-18 08:40 49.42197 10.34702 21329 ft 369 kts 305°
2026-04-18 08:40 49.43674 10.31466 20970 ft 366 kts 305°
2026-04-18 08:41 49.45123 10.28295 20617 ft 364 kts 305°
2026-04-18 08:41 49.46561 10.25153 20265 ft 362 kts 305°
2026-04-18 08:41 49.48005 10.22002 19911 ft 359 kts 305°
2026-04-18 08:41 49.49421 10.18914 19563 ft 357 kts 305°
2026-04-18 08:42 49.50851 10.15795 19213 ft 355 kts 305°
2026-04-18 08:42 49.52269 10.12730 18865 ft 352 kts 308°
2026-04-18 08:42 49.53927 10.09988 18511 ft 350 kts 319°
2026-04-18 08:42 49.55892 10.07817 18158 ft 348 kts 330°
2026-04-18 08:43 49.58017 10.06129 17814 ft 346 kts 334°
2026-04-18 08:43 49.60181 10.04542 17467 ft 343 kts 335°
2026-04-18 08:43 49.62312 10.02988 17127 ft 342 kts 334°
2026-04-18 08:43 49.64458 10.01406 16783 ft 340 kts 334°
2026-04-18 08:44 49.66566 9.99837 16444 ft 338 kts 334°
2026-04-18 08:44 49.68660 9.98270 16107 ft 336 kts 334°
2026-04-18 08:44 49.70746 9.96704 15771 ft 334 kts 334°
2026-04-18 08:44 49.72811 9.95072 15435 ft 332 kts 331°
2026-04-18 08:45 49.74834 9.93307 15099 ft 331 kts 330°
2026-04-18 08:45 49.76791 9.91560 14771 ft 329 kts 330°
2026-04-18 08:45 49.78764 9.89790 14440 ft 327 kts 330°
2026-04-18 08:45 49.80731 9.88028 14110 ft 326 kts 330°
2026-04-18 08:46 49.82679 9.86284 13782 ft 324 kts 330°
2026-04-18 08:46 49.84631 9.84539 13454 ft 322 kts 330°
2026-04-18 08:46 49.86574 9.82802 13126 ft 320 kts 330°
2026-04-18 08:46 49.88481 9.81089 12804 ft 319 kts 329°
2026-04-18 08:47 49.90344 9.79232 12482 ft 317 kts 325°
2026-04-18 08:47 49.92115 9.77286 12223 ft 313 kts 324°
2026-04-18 08:47 49.93856 9.75333 11810 ft 313 kts 324°
2026-04-18 08:47 49.95624 9.73340 10902 ft 315 kts 324°
2026-04-18 08:48 49.97362 9.71383 10178 ft 305 kts 324°
2026-04-18 08:48 49.99030 9.69504 9517 ft 295 kts 324°
2026-04-18 08:48 50.00655 9.67673 8878 ft 286 kts 324°
2026-04-18 08:48 50.02255 9.65870 8264 ft 286 kts 324°
2026-04-18 08:49 50.03865 9.64055 7906 ft 283 kts 324°
2026-04-18 08:49 50.05439 9.62280 7623 ft 279 kts 324°
2026-04-18 08:49 50.06999 9.60518 7320 ft 277 kts 324°
2026-04-18 08:49 50.08554 9.58762 7000 ft 276 kts 324°
2026-04-18 08:50 50.10080 9.57037 6734 ft 273 kts 324°
2026-04-18 08:50 50.11618 9.55306 6482 ft 269 kts 324°
2026-04-18 08:50 50.13129 9.53607 6236 ft 266 kts 324°
2026-04-18 08:50 50.14619 9.51927 5996 ft 262 kts 324°
2026-04-18 08:51 50.16080 9.50273 5762 ft 258 kts 324°
2026-04-18 08:51 50.17518 9.48643 5534 ft 255 kts 324°
2026-04-18 08:51 50.18933 9.47037 5312 ft 251 kts 324°
2026-04-18 08:51 50.20335 9.45444 5094 ft 248 kts 324°
2026-04-18 08:52 50.21634 9.43700 4895 ft 243 kts 309°
2026-04-18 08:52 50.22445 9.41423 4710 ft 238 kts 287°
2026-04-18 08:52 50.22664 9.38918 4533 ft 234 kts 266°
2026-04-18 08:52 50.22329 9.36473 4364 ft 229 kts 252°
2026-04-18 08:53 50.21785 9.34148 4204 ft 224 kts 249°
2026-04-18 08:53 50.21238 9.31920 4051 ft 220 kts 249°
2026-04-18 08:53 50.20700 9.29692 3910 ft 214 kts 249°
2026-04-18 08:53 50.20195 9.27563 3854 ft 212 kts 249°
2026-04-18 08:54 50.19673 9.25336 3827 ft 221 kts 250°
2026-04-18 08:54 50.19148 9.23077 3815 ft 222 kts 250°
2026-04-18 08:54 50.18626 9.20828 3810 ft 222 kts 250°
2026-04-18 08:54 50.18096 9.18545 3807 ft 222 kts 250°
2026-04-18 08:55 50.17570 9.16280 3806 ft 222 kts 250°
2026-04-18 08:55 50.17050 9.14042 3806 ft 222 kts 250°
2026-04-18 08:55 50.16522 9.11768 3805 ft 222 kts 250°
2026-04-18 08:55 50.15994 9.09502 3805 ft 222 kts 250°
2026-04-18 08:56 50.15468 9.07244 3806 ft 222 kts 250°
2026-04-18 08:56 50.14940 9.04984 3806 ft 222 kts 250°
2026-04-18 08:56 50.14465 9.02710 3802 ft 218 kts 253°
2026-04-18 08:56 50.14037 9.00525 3799 ft 206 kts 252°
2026-04-18 08:57 50.13164 8.96474 3794 ft 185 kts 250°
2026-04-18 08:57 50.12739 8.94652 3801 ft 174 kts 249°
2026-04-18 08:57 50.12332 8.92960 3817 ft 162 kts 249°
2026-04-18 08:58 50.11929 8.91314 3809 ft 161 kts 249°
2026-04-18 08:58 50.11528 8.89690 3807 ft 161 kts 249°
2026-04-18 08:58 50.11127 8.88070 3806 ft 161 kts 249°
2026-04-18 08:58 50.10721 8.86433 3806 ft 161 kts 249°
2026-04-18 08:59 50.10319 8.84809 3800 ft 161 kts 249°
2026-04-18 08:59 50.09917 8.83174 3628 ft 161 kts 249°
2026-04-18 08:59 50.09520 8.81555 3424 ft 160 kts 249°
2026-04-18 08:59 50.09124 8.79933 3211 ft 159 kts 249°
2026-04-18 09:00 50.08734 8.78330 3001 ft 159 kts 249°
2026-04-18 09:00 50.08345 8.76724 2790 ft 158 kts 249°
2026-04-18 09:00 50.07959 8.75125 2580 ft 158 kts 249°
2026-04-18 09:00 50.07573 8.73524 2370 ft 157 kts 249°
2026-04-18 09:01 50.07191 8.71938 2161 ft 153 kts 250°
2026-04-18 09:01 50.06834 8.70434 1934 ft 144 kts 250°
2026-04-18 09:01 50.06496 8.69006 1743 ft 141 kts 249°
2026-04-18 09:01 50.06150 8.67581 1569 ft 141 kts 249°
2026-04-18 09:02 50.05808 8.66141 1395 ft 140 kts 250°
2026-04-18 09:02 50.05469 8.64731 1228 ft 140 kts 249°
2026-04-18 09:02 50.05122 8.63339 1065 ft 140 kts 249°
2026-04-18 09:02 50.04781 8.61914 874 ft 140 kts 250°
2026-04-18 09:03 50.04445 8.60497 661 ft 142 kts 250°
2026-04-18 09:03 50.04102 8.59067 473 ft 142 kts 249°
2026-04-18 09:03 50.03770 8.57688 361 ft 124 kts 250°
2026-04-18 09:03 50.03530 8.56691 346 ft 71 kts 250°
2026-04-18 09:04 50.03424 8.56235 344 ft 24 kts 251°
2026-04-18 09:04 50.03356 8.55937 342 ft 31 kts 249°
2026-04-18 09:04 50.03305 8.55598 338 ft 27 kts 272°
2026-04-18 09:04 50.03327 8.55365 338 ft 17 kts 281°
2026-04-18 09:05 50.03338 8.55273 339 ft 0 kts 281°
2026-04-18 09:05 50.03339 8.55267 339 ft 2 kts 281°
2026-04-18 09:05 50.03346 8.55205 339 ft 10 kts 279°
2026-04-18 09:05 50.03361 8.55080 339 ft 12 kts 287°
2026-04-18 09:06 50.03365 8.54952 339 ft 12 kts 252°
2026-04-18 09:06 50.03330 8.54812 338 ft 15 kts 249°
2026-04-18 09:06 50.03290 8.54643 337 ft 18 kts 250°
2026-04-18 09:06 50.03299 8.54472 335 ft 15 kts 335°
2026-04-18 09:07 50.03406 8.54424 337 ft 16 kts 344°
2026-04-18 09:07 50.03513 8.54363 339 ft 16 kts 338°
2026-04-18 09:07 50.03621 8.54315 341 ft 15 kts
2026-04-18 09:07 50.03686 8.54438 342 ft 16 kts 69°
2026-04-18 09:08 50.03727 8.54607 343 ft 17 kts 70°
2026-04-18 09:08 50.03768 8.54782 346 ft 16 kts 70°
2026-04-18 09:08 50.03808 8.54950 348 ft 17 kts 70°
2026-04-18 09:08 50.03849 8.55123 351 ft 16 kts 70°
2026-04-18 09:09 50.03891 8.55297 353 ft 17 kts 70°
2026-04-18 09:09 50.03934 8.55481 354 ft 18 kts 70°
2026-04-18 09:09 50.03983 8.55679 354 ft 20 kts 70°
2026-04-18 09:09 50.04035 8.55897 354 ft 21 kts 70°
2026-04-18 09:10 50.04088 8.56118 357 ft 21 kts 70°
2026-04-18 09:10 50.04140 8.56336 360 ft 21 kts 70°
2026-04-18 09:10 50.04191 8.56553 362 ft 18 kts 70°
2026-04-18 09:10 50.04230 8.56717 365 ft 14 kts 69°
2026-04-18 09:11 50.04292 8.56809 369 ft 11 kts 16°
2026-04-18 09:11 50.04334 8.56823 371 ft 0 kts 11°
2026-04-18 09:11 50.04335 8.56824 371 ft 1 kts 11°
2026-04-18 09:12 50.04416 8.56846 373 ft 12 kts 10°
2026-04-18 09:12 50.04493 8.56868 374 ft 11 kts 13°
2026-04-18 09:12 50.04555 8.56944 375 ft 12 kts 59°
2026-04-18 09:12 50.04582 8.57019 376 ft 6 kts 60°